Location: Newark
(5.8900°S, 42.6378°W)
Time: 19:18:52
(UTC+00:00)

Vanguard 1 Rocket - Pass Details

Date: 22 October 2019
Orbit: 651 x 4225 km, 34.3° (Epoch: 10 November)

Event Time Altitude Azimuth Distance (km) Brightness Sun altitude
Rises 23:07:49 0° 289° (WNW) 8,093 12.9 -35.7°
Reaches altitude 10° 23:14:31 10° 283° (WNW) 6,660 12.3 -37.3°
Maximum altitude 23:32:14 41° 219° (SW) 3,111 10.2 -41.4°
Enters shadow 23:39:34 20° 161° (SSE) 3,302 10.2 -43.1°
Drops below altitude 10° 23:41:59 10° 150° (SSE) 3,749 - -43.7°
Sets 23:44:38 0° 142° (SE) 4,384 - -44.3°
